This is the latest recevied weather packets stored in our database for station/object JA6YCL-13. If no packets are shown the sender has not sent any weather packets the latest 10 day(s).
| Time | Temp. | Humidity | Pressure | Rain* | Wind** | Luminosity | Snow |
|---|---|---|---|---|---|---|---|
| 1778006218 | 10.56° C | 87% | 1020 hPa | 0 mm | - | - | - |
| 1778005478 | 10.56° C | 86% | 1019.7 hPa | 0 mm | - | - | - |
| 1778004746 | 10.56° C | 86% | 1019.7 hPa | 0 mm | - | - | - |
| 1778004023 | 11.11° C | 85% | 1019.8 hPa | 0 mm | - | - | - |
| 1778003253 | 10.56° C | 85% | 1020.1 hPa | 0 mm | - | - | - |
| 1778002458 | 11.11° C | 85% | 1020.4 hPa | 0 mm | - | - | - |
| 1778001667 | 11.11° C | 84% | 1020.3 hPa | 0 mm | - | - | - |
| 1778000788 | 11.11° C | 83% | 1020.5 hPa | 0 mm | - | - | - |
| 1777999993 | 11.67° C | 83% | 1020.4 hPa | 0 mm | - | - | - |
| 1777999254 | 11.67° C | 82% | 1020.5 hPa | 0 mm | - | - | - |
| 1777998392 | 11.67° C | 82% | 1020.5 hPa | 0 mm | - | - | - |
| 1777997588 | 12.22° C | 79% | 1020.6 hPa | 0 mm | - | - | - |
| 1777996833 | 12.22° C | 80% | 1020.8 hPa | 0 mm | - | - | - |
| 1777996029 | 12.22° C | 79% | 1020.7 hPa | 0 mm | - | - | - |
| 1777995258 | 12.22° C | 79% | 1020.7 hPa | 0 mm | - | - | - |
| 1777994493 | 12.22° C | 79% | 1020.8 hPa | 0 mm | - | - | - |
| 1777993643 | 12.78° C | 79% | 1021.1 hPa | 0 mm | - | - | - |
| 1777992913 | 12.78° C | 77% | 1021 hPa | 0 mm | - | - | - |
| 1777992078 | 12.78° C | 76% | 1021.1 hPa | 0 mm | - | - | - |
| 1777991333 | 13.33° C | 74% | 1021 hPa | 0 mm | - | - | - |
| 1777990527 | 13.89° C | 73% | 1021 hPa | 0 mm | - | - | - |
| 1777989808 | 13.89° C | 70% | 1020.8 hPa | 0 mm | - | - | - |
| 1777989085 | 14.44° C | 69% | 1020.9 hPa | 0 mm | - | - | - |
| 1777988328 | 14.44° C | 67% | 1020.8 hPa | 0 mm | - | - | - |
| 1777987597 | 15° C | 66% | 1020.9 hPa | 0 mm | - | - | - |
* Rain latest hour (hover to see other rain measurements)
** Current wind speed in m/s (hover to see current wind gust speed)